| time (UTC) | temp F | wind direction | speed MPH | gust MPH | rain 1hr in | rain 24hr in | rain mn in | humidity % | barometer mb |
| 20260904000934 | 87 | 140 | 11.0 | 24.0 | 0.00 | 0.00 | 0.00 | 71 | 1013.3 |
| 20260904000432 | 87 | 117 | 11.0 | 24.0 | 0.00 | 0.00 | 0.00 | 71 | 1013.3 |
| 20260903235932 | 88 | 123 | 10.0 | 18.0 | 0.00 | 0.00 | 0.00 | 71 | 1013.3 |
| 20260903235432 | 88 | 123 | 10.0 | 19.0 | 0.00 | 0.00 | 0.00 | 71 | 1013.2 |
| 20260903234930 | 89 | 123 | 11.0 | 19.0 | 0.00 | 0.00 | 0.00 | 70 | 1013.2 |
| 20260903234430 | 89 | 132 | 11.0 | 21.0 | 0.00 | 0.00 | 0.00 | 69 | 1013.2 |
| 20260903233930 | 89 | 165 | 9.0 | 21.0 | 0.00 | 0.00 | 0.00 | 69 | 1013.0 |
| 20260903233656 | 90 | 128 | 11.0 | 22.0 | 0.00 | 0.00 | 0.00 | 70 | 1012.8 |
| 20260903233156 | 90 | 104 | 13.0 | 24.0 | 0.00 | 0.00 | 0.00 | 70 | 1012.7 |
| 20260903232919 | 90 | 124 | 13.0 | 24.0 | 0.00 | 0.00 | 0.00 | 70 | 1012.6 |
| 20260903231930 | 91 | 141 | 12.0 | 21.0 | 0.00 | 0.00 | 0.00 | 70 | 1012.5 |
| 20260903231430 | 91 | 111 | 12.0 | 23.0 | 0.00 | 0.00 | 0.00 | 68 | 1012.7 |
| 20260903230928 | 92 | 105 | 12.0 | 23.0 | 0.00 | 0.00 | 0.00 | 67 | 1012.8 |
| 20260903230426 | 92 | 111 | 11.0 | 20.0 | 0.00 | 0.00 | 0.00 | 66 | 1012.5 |
| 20260903225926 | 92 | 84 | 11.0 | 23.0 | 0.00 | 0.00 | 0.00 | 66 | 1012.5 |
| 20260903225424 | 93 | 135 | 11.0 | 23.0 | 0.00 | 0.00 | 0.00 | 66 | 1012.3 |
| 20260903224922 | 93 | 147 | 12.0 | 23.0 | 0.00 | 0.00 | 0.00 | 65 | 1012.4 |
| 20260903224423 | 93 | 103 | 13.0 | 23.0 | 0.00 | 0.00 | 0.00 | 64 | 1012.3 |
| 20260903224148 | 94 | 150 | 12.0 | 22.0 | 0.00 | 0.00 | 0.00 | 62 | 1012.1 |
| 20260903223409 | 94 | 136 | 12.0 | 22.0 | 0.00 | 0.00 | 0.00 | 60 | 1012.1 |
| 20260903223137 | 95 | 115 | 11.0 | 22.0 | 0.00 | 0.00 | 0.00 | 60 | 1012.2 |
| 20260903222408 | 95 | 115 | 12.0 | 22.0 | 0.00 | 0.00 | 0.00 | 61 | 1012.1 |
| 20260903221908 | 95 | 129 | 11.0 | 21.0 | 0.00 | 0.00 | 0.00 | 59 | 1012.1 |
| 20260903221406 | 96 | 142 | 10.0 | 20.0 | 0.00 | 0.00 | 0.00 | 59 | 1012.0 |
| 20260903220906 | 96 | 123 | 11.0 | 23.0 | 0.00 | 0.00 | 0.00 | 58 | 1012.1 |
| 20260903220406 | 96 | 123 | 11.0 | 23.0 | 0.00 | 0.00 | 0.00 | 58 | 1012.0 |
| 20260903215906 | 96 | 139 | 10.0 | 18.0 | 0.00 | 0.00 | 0.00 | 58 | 1011.9 |
| 20260903215405 | 96 | 134 | 9.0 | 18.0 | 0.00 | 0.00 | 0.00 | 58 | 1011.9 |
| 20260903214906 | 96 | 120 | 9.0 | 18.0 | 0.00 | 0.00 | 0.00 | 58 | 1012.1 |
| 20260903214632 | 96 | 133 | 10.0 | 18.0 | 0.00 | 0.00 | 0.00 | 59 | 1012.0 |
| 20260903213905 | 96 | 107 | 9.0 | 17.0 | 0.00 | 0.00 | 0.00 | 60 | 1012.2 |
| 20260903213404 | 96 | 105 | 9.0 | 16.0 | 0.00 | 0.00 | 0.00 | 59 | 1012.3 |
| 20260903212904 | 96 | 90 | 9.0 | 16.0 | 0.00 | 0.00 | 0.00 | 59 | 1012.4 |
| 20260903212404 | 96 | 129 | 9.0 | 15.0 | 0.00 | 0.00 | 0.00 | 59 | 1012.4 |
| 20260903211904 | 96 | 113 | 9.0 | 15.0 | 0.00 | 0.00 | 0.00 | 58 | 1012.4 |
| 20260903211403 | 96 | 130 | 8.0 | 18.0 | 0.00 | 0.00 | 0.00 | 57 | 1012.4 |
| 20260903210902 | 96 | 84 | 8.0 | 18.0 | 0.00 | 0.00 | 0.00 | 56 | 1012.5 |
| 20260903210403 | 96 | 150 | 8.0 | 16.0 | 0.00 | 0.00 | 0.00 | 56 | 1012.3 |
| 20260903205902 | 97 | 80 | 8.0 | 15.0 | 0.00 | 0.00 | 0.00 | 55 | 1012.5 |
| 20260903205624 | 96 | 122 | 8.0 | 14.0 | 0.00 | 0.00 | 0.00 | 56 | 1012.6 |
| 20260903205134 | 96 | 137 | 7.0 | 14.0 | 0.00 | 0.00 | 0.00 | 56 | 1012.7 |
| 20260903204400 | 97 | 157 | 8.0 | 13.0 | 0.00 | 0.00 | 0.00 | 56 | 1012.8 |
| 20260903203900 | 97 | 134 | 8.0 | 14.0 | 0.00 | 0.00 | 0.00 | 56 | 1013.0 |
| 20260903203359 | 97 | 96 | 8.0 | 16.0 | 0.00 | 0.00 | 0.00 | 56 | 1013.0 |
| 20260903203128 | 97 | 142 | 8.0 | 16.0 | 0.00 | 0.00 | 0.00 | 56 | 1013.3 |
| 20260903202355 | 97 | 152 | 7.0 | 14.0 | 0.00 | 0.00 | 0.00 | 55 | 1013.4 |
| 20260903201855 | 97 | 123 | 7.0 | 14.0 | 0.00 | 0.00 | 0.00 | 55 | 1013.4 |
| 20260903201356 | 97 | 144 | 6.0 | 15.0 | 0.00 | 0.00 | 0.00 | 56 | 1013.5 |
| 20260903200856 | 96 | 111 | 7.0 | 15.0 | 0.00 | 0.00 | 0.00 | 57 | 1013.6 |
| 20260903200356 | 96 | 109 | 8.0 | 15.0 | 0.00 | 0.00 | 0.00 | 57 | 1013.6 |
| 20260903195856 | 96 | 121 | 7.0 | 15.0 | 0.00 | 0.00 | 0.00 | 58 | 1013.6 |
| 20260903195620 | 96 | 182 | 6.0 | 15.0 | 0.00 | 0.00 | 0.00 | 58 | 1013.6 |
| 20260903194855 | 96 | 116 | 7.0 | 15.0 | 0.00 | 0.00 | 0.00 | 58 | 1013.6 |
| 20260903194355 | 96 | 100 | 7.0 | 13.0 | 0.00 | 0.00 | 0.00 | 57 | 1013.7 |
| 20260903193849 | 95 | 112 | 5.0 | 11.0 | 0.00 | 0.00 | 0.00 | 59 | 1013.8 |
| 20260903193344 | 95 | 119 | 7.0 | 13.0 | 0.00 | 0.00 | 0.00 | 61 | 1013.9 |
| 20260903192840 | 94 | 90 | 6.0 | 14.0 | 0.00 | 0.00 | 0.00 | 59 | 1013.9 |
| 20260903192339 | 94 | 104 | 6.0 | 14.0 | 0.00 | 0.00 | 0.00 | 59 | 1014.0 |
| 20260903191838 | 95 | 118 | 7.0 | 14.0 | 0.00 | 0.00 | 0.00 | 59 | 1014.1 |
| 20260903191338 | 95 | 111 | 6.0 | 14.0 | 0.00 | 0.00 | 0.00 | 59 | 1014.2 |
| 20260903190837 | 95 | 153 | 6.0 | 14.0 | 0.00 | 0.00 | 0.00 | 58 | 1014.3 |
| 20260903190337 | 95 | 123 | 6.0 | 14.0 | 0.00 | 0.00 | 0.00 | 60 | 1014.3 |
| 20260903185836 | 95 | 132 | 7.0 | 14.0 | 0.00 | 0.00 | 0.00 | 59 | 1014.6 |
| 20260903185335 | 95 | 148 | 6.0 | 12.0 | 0.00 | 0.00 | 0.00 | 57 | 1014.6 |
| 20260903184836 | 95 | 142 | 5.0 | 13.0 | 0.00 | 0.00 | 0.00 | 60 | 1014.6 |
| 20260903184335 | 95 | 115 | 6.0 | 13.0 | 0.00 | 0.00 | 0.00 | 60 | 1014.8 |
| 20260903183835 | 95 | 121 | 6.0 | 10.0 | 0.00 | 0.00 | 0.00 | 57 | 1014.7 |
| 20260903183334 | 94 | 90 | 5.0 | 10.0 | 0.00 | 0.00 | 0.00 | 58 | 1014.8 |
| 20260903182834 | 94 | 140 | 5.0 | 10.0 | 0.00 | 0.00 | 0.00 | 59 | 1014.8 |
| 20260903182333 | 94 | 86 | 5.0 | 13.0 | 0.00 | 0.00 | 0.00 | 58 | 1014.8 |
| 20260903181833 | 93 | 154 | 6.0 | 13.0 | 0.00 | 0.00 | 0.00 | 60 | 1014.9 |
| 20260903181334 | 93 | 119 | 5.0 | 11.0 | 0.00 | 0.00 | 0.00 | 60 | 1015.0 |
| 20260903181052 | 93 | 95 | 5.0 | 11.0 | 0.00 | 0.00 | 0.00 | 59 | 1015.1 |
| 20260903180330 | 93 | 142 | 6.0 | 14.0 | 0.00 | 0.00 | 0.00 | 60 | 1015.2 |
| 20260903175826 | 93 | 147 | 6.0 | 14.0 | 0.00 | 0.00 | 0.00 | 61 | 1015.3 |
| 20260903175319 | 92 | 132 | 5.0 | 11.0 | 0.00 | 0.00 | 0.00 | 63 | 1015.3 |
| 20260903174819 | 92 | 107 | 5.0 | 11.0 | 0.00 | 0.00 | 0.00 | 62 | 1015.3 |
| 20260903174319 | 92 | 121 | 5.0 | 11.0 | 0.00 | 0.00 | 0.00 | 64 | 1015.4 |
| 20260903173817 | 91 | 132 | 4.0 | 11.0 | 0.00 | 0.00 | 0.00 | 64 | 1015.4 |
| 20260903173317 | 91 | 112 | 3.0 | 7.0 | 0.00 | 0.00 | 0.00 | 65 | 1015.5 |
| 20260903172817 | 91 | 124 | 3.0 | 10.0 | 0.00 | 0.00 | 0.00 | 65 | 1015.6 |
| 20260903172318 | 91 | 114 | 3.0 | 10.0 | 0.00 | 0.00 | 0.00 | 65 | 1015.6 |
| 20260903171817 | 91 | 119 | 3.0 | 7.0 | 0.00 | 0.00 | 0.00 | 66 | 1015.6 |
| 20260903171317 | 91 | 153 | 4.0 | 9.0 | 0.00 | 0.00 | 0.00 | 66 | 1015.6 |
| 20260903170818 | 91 | 173 | 5.0 | 11.0 | 0.00 | 0.00 | 0.00 | 66 | 1015.5 |
| 20260903170541 | 91 | 212 | 5.0 | 11.0 | 0.00 | 0.00 | 0.00 | 67 | 1015.4 |
| 20260903165817 | 90 | 139 | 5.0 | 10.0 | 0.00 | 0.00 | 0.00 | 67 | 1015.5 |
| 20260903165318 | 90 | 179 | 6.0 | 11.0 | 0.00 | 0.00 | 0.00 | 67 | 1015.4 |
| 20260903164817 | 90 | 171 | 6.0 | 12.0 | 0.00 | 0.00 | 0.00 | 66 | 1015.5 |
| 20260903164317 | 89 | 159 | 5.0 | 12.0 | 0.00 | 0.00 | 0.00 | 68 | 1015.6 |
| 20260903163818 | 89 | 179 | 5.0 | 10.0 | 0.00 | 0.00 | 0.00 | 68 | 1015.6 |
| 20260903163543 | 89 | 121 | 5.0 | 12.0 | 0.00 | 0.00 | 0.00 | 70 | 1015.6 |
| 20260903162821 | 89 | 152 | 5.0 | 12.0 | 0.00 | 0.00 | 0.00 | 70 | 1015.6 |
| 20260903162319 | 89 | 209 | 5.0 | 12.0 | 0.00 | 0.00 | 0.00 | 69 | 1015.6 |
| 20260903161817 | 88 | 184 | 5.0 | 12.0 | 0.00 | 0.00 | 0.00 | 70 | 1015.6 |
| 20260903161318 | 88 | 205 | 6.0 | 13.0 | 0.00 | 0.00 | 0.00 | 70 | 1015.7 |
| 20260903161044 | 87 | 183 | 6.0 | 14.0 | 0.00 | 0.00 | 0.00 | 71 | 1015.5 |
| 20260903160540 | 87 | 206 | 5.0 | 14.0 | 0.00 | 0.00 | 0.00 | 71 | 1015.6 |
| 20260903160041 | 87 | 170 | 5.0 | 13.0 | 0.00 | 0.00 | 0.00 | 73 | 1015.6 |
| 20260903155316 | 86 | 206 | 6.0 | 13.0 | 0.00 | 0.00 | 0.00 | 73 | 1015.6 |
| 20260903154816 | 86 | 188 | 6.0 | 11.0 | 0.00 | 0.00 | 0.00 | 73 | 1015.6 |
| 20260903154317 | 86 | 182 | 6.0 | 14.0 | 0.00 | 0.00 | 0.00 | 74 | 1015.6 |
| 20260903153817 | 85 | 193 | 6.0 | 14.0 | 0.00 | 0.00 | 0.00 | 74 | 1015.5 |
| 20260903153317 | 85 | 186 | 6.0 | 12.0 | 0.00 | 0.00 | 0.00 | 76 | 1015.4 |
| 20260903152817 | 85 | 175 | 6.0 | 12.0 | 0.00 | 0.00 | 0.00 | 76 | 1015.4 |
| 20260903152317 | 85 | 248 | 6.0 | 12.0 | 0.00 | 0.00 | 0.00 | 77 | 1015.4 |
| 20260903151813 | 84 | 184 | 7.0 | 15.0 | 0.00 | 0.00 | 0.00 | 77 | 1015.4 |
| 20260903151313 | 84 | 203 | 7.0 | 21.0 | 0.00 | 0.00 | 0.00 | 78 | 1015.5 |
| 20260903150813 | 84 | 193 | 7.0 | 21.0 | 0.00 | 0.00 | 0.00 | 78 | 1015.6 |
| 20260903150311 | 84 | 218 | 7.0 | 16.0 | 0.00 | 0.00 | 0.00 | 79 | 1015.6 |
| 20260903145811 | 83 | 207 | 6.0 | 16.0 | 0.00 | 0.00 | 0.00 | 80 | 1015.5 |
| 20260903145309 | 83 | 202 | 6.0 | 16.0 | 0.00 | 0.00 | 0.00 | 81 | 1015.5 |
| 20260903144807 | 83 | 202 | 7.0 | 16.0 | 0.00 | 0.00 | 0.00 | 82 | 1015.4 |
| 20260903144307 | 83 | 167 | 8.0 | 16.0 | 0.00 | 0.00 | 0.00 | 82 | 1015.4 |
| 20260903144033 | 82 | 193 | 7.0 | 14.0 | 0.00 | 0.00 | 0.00 | 83 | 1015.5 |
| 20260903143522 | 82 | 213 | 7.0 | 14.0 | 0.00 | 0.00 | 0.00 | 83 | 1015.5 |
| 20260903142803 | 82 | 214 | 7.0 | 14.0 | 0.00 | 0.00 | 0.00 | 83 | 1015.5 |
| 20260903142306 | 82 | 182 | 7.0 | 16.0 | 0.00 | 0.00 | 0.00 | 83 | 1015.5 |
| 20260903141802 | 82 | 200 | 6.0 | 16.0 | 0.00 | 0.00 | 0.00 | 83 | 1015.5 |
| 20260903141302 | 83 | 204 | 5.0 | 16.0 | 0.00 | 0.00 | 0.00 | 84 | 1015.5 |
| 20260903140802 | 82 | 217 | 6.0 | 16.0 | 0.00 | 0.00 | 0.00 | 84 | 1015.5 |
| 20260903140256 | 82 | 208 | 6.0 | 16.0 | 0.00 | 0.00 | 0.00 | 85 | 1015.5 |
| 20260903135753 | 82 | 189 | 5.0 | 14.0 | 0.00 | 0.00 | 0.00 | 85 | 1015.5 |
| 20260903135252 | 82 | 178 | 5.0 | 14.0 | 0.00 | 0.00 | 0.00 | 86 | 1015.5 |
| 20260903134751 | 81 | 198 | 5.0 | 14.0 | 0.00 | 0.00 | 0.00 | 88 | 1015.5 |
| 20260903134251 | 81 | 175 | 4.0 | 11.0 | 0.00 | 0.00 | 0.00 | 89 | 1015.6 |
| 20260903134011 | 80 | 196 | 4.0 | 11.0 | 0.00 | 0.00 | 0.00 | 89 | 1015.6 |
| 20260903133249 | 80 | 209 | 5.0 | 12.0 | 0.00 | 0.00 | 0.00 | 90 | 1015.6 |
| 20260903132749 | 79 | 186 | 4.0 | 12.0 | 0.00 | 0.00 | 0.00 | 90 | 1015.5 |
| 20260903132246 | 79 | 196 | 5.0 | 10.0 | 0.00 | 0.00 | 0.00 | 91 | 1015.5 |
| 20260903131745 | 79 | 206 | 5.0 | 10.0 | 0.00 | 0.00 | 0.00 | 91 | 1015.5 |
| 20260903131243 | 79 | 195 | 4.0 | 9.0 | 0.00 | 0.00 | 0.00 | 91 | 1015.5 |
| 20260903130743 | 79 | 204 | 4.0 | 9.0 | 0.00 | 0.00 | 0.00 | 91 | 1015.5 |
| 20260903130508 | 79 | 184 | 4.0 | 14.0 | 0.00 | 0.00 | 0.00 | 91 | 1015.5 |
| 20260903125738 | 79 | 178 | 4.0 | 14.0 | 0.00 | 0.00 | 0.00 | 91 | 1015.4 |
| 20260903125238 | 79 | 176 | 4.0 | 10.0 | 0.00 | 0.00 | 0.00 | 92 | 1015.4 |
| 20260903124736 | 78 | 206 | 4.0 | 11.0 | 0.00 | 0.00 | 0.00 | 92 | 1015.4 |
| 20260903124235 | 78 | 196 | 4.0 | 11.0 | 0.00 | 0.00 | 0.00 | 92 | 1015.3 |
| 20260903123731 | 78 | 178 | 4.0 | 10.0 | 0.00 | 0.00 | 0.00 | 92 | 1015.3 |
| 20260903123230 | 78 | 193 | 4.0 | 10.0 | 0.00 | 0.00 | 0.00 | 92 | 1015.4 |
| 20260903122730 | 78 | 174 | 4.0 | 11.0 | 0.00 | 0.00 | 0.00 | 92 | 1015.4 |
| 20260903122451 | 78 | 184 | 5.0 | 11.0 | 0.00 | 0.00 | 0.00 | 92 | 1015.3 |
| 20260903121724 | 78 | 190 | 5.0 | 9.0 | 0.00 | 0.00 | 0.00 | 92 | 1015.1 |
| 20260903121218 | 78 | 159 | 5.0 | 11.0 | 0.00 | 0.00 | 0.00 | 92 | 1015.1 |
| 20260903120934 | 78 | 180 | 6.0 | 14.0 | 0.00 | 0.00 | 0.00 | 92 | 1015.0 |
| 20260903120206 | 78 | 178 | 6.0 | 14.0 | 0.00 | 0.00 | 0.00 | 92 | 1015.0 |
| 20260903115706 | 78 | 182 | 5.0 | 13.0 | 0.00 | 0.00 | 0.00 | 92 | 1015.1 |
| 20260903115205 | 78 | 146 | 6.0 | 13.0 | 0.00 | 0.00 | 0.00 | 92 | 1015.0 |
| 20260903115151 | 78 | 172 | 6.0 | 13.0 | 0.00 | 0.00 | 0.00 | 92 | 1015.0 |
| 20260903114205 | 78 | 170 | 5.0 | 13.0 | 0.00 | 0.00 | 0.00 | 92 | 1015.0 |
| 20260903113926 | 78 | 180 | 4.0 | 11.0 | 0.00 | 0.00 | 0.00 | 91 | 1015.1 |
| 20260903113206 | 78 | 179 | 4.0 | 11.0 | 0.00 | 0.00 | 0.00 | 91 | 1015.0 |
| 20260903112702 | 78 | 169 | 6.0 | 12.0 | 0.00 | 0.00 | 0.00 | 91 | 1015.0 |
| 20260903112650 | 78 | 180 | 6.0 | 12.0 | 0.00 | 0.00 | 0.00 | 91 | 1015.0 |
| 20260903111703 | 78 | 159 | 5.0 | 12.0 | 0.00 | 0.00 | 0.00 | 91 | 1015.0 |
| 20260903111203 | 78 | 182 | 6.0 | 12.0 | 0.00 | 0.00 | 0.00 | 91 | 1014.9 |
| 20260903110701 | 78 | 169 | 6.0 | 12.0 | 0.00 | 0.00 | 0.00 | 91 | 1014.8 |
| 20260903110426 | 78 | 144 | 6.0 | 12.0 | 0.00 | 0.00 | 0.00 | 91 | 1014.8 |
| 20260903105702 | 78 | 160 | 5.0 | 12.0 | 0.00 | 0.00 | 0.00 | 91 | 1014.8 |
| 20260903105203 | 78 | 154 | 6.0 | 13.0 | 0.00 | 0.00 | 0.00 | 91 | 1014.7 |
| 20260903104702 | 78 | 149 | 5.0 | 13.0 | 0.00 | 0.00 | 0.00 | 91 | 1014.7 |
| 20260903104202 | 78 | 164 | 4.0 | 11.0 | 0.00 | 0.00 | 0.00 | 91 | 1014.6 |
| 20260903103925 | 78 | 190 | 5.0 | 10.0 | 0.00 | 0.00 | 0.00 | 91 | 1014.6 |
| 20260903103159 | 78 | 169 | 5.0 | 10.0 | 0.00 | 0.00 | 0.00 | 91 | 1014.7 |
| 20260903102658 | 78 | 188 | 5.0 | 12.0 | 0.00 | 0.00 | 0.00 | 91 | 1014.6 |
| 20260903102159 | 78 | 196 | 5.0 | 12.0 | 0.00 | 0.00 | 0.00 | 90 | 1014.6 |
| 20260903101658 | 79 | 138 | 6.0 | 14.0 | 0.00 | 0.00 | 0.00 | 90 | 1014.5 |
| 20260903101156 | 79 | 176 | 6.0 | 14.0 | 0.00 | 0.00 | 0.00 | 90 | 1014.5 |
| 20260903100657 | 79 | 160 | 5.0 | 11.0 | 0.00 | 0.00 | 0.00 | 90 | 1014.5 |
| 20260903100156 | 79 | 194 | 5.0 | 12.0 | 0.00 | 0.00 | 0.00 | 90 | 1014.5 |
| 20260903095656 | 79 | 155 | 6.0 | 12.0 | 0.00 | 0.00 | 0.00 | 90 | 1014.5 |
| 20260903095157 | 79 | 161 | 5.0 | 13.0 | 0.00 | 0.00 | 0.00 | 90 | 1014.5 |
| 20260903094920 | 79 | 158 | 5.0 | 14.0 | 0.00 | 0.00 | 0.00 | 89 | 1014.6 |
| 20260903094156 | 79 | 214 | 5.0 | 14.0 | 0.00 | 0.00 | 0.00 | 89 | 1014.6 |
| 20260903093657 | 79 | 153 | 5.0 | 12.0 | 0.00 | 0.00 | 0.00 | 89 | 1014.7 |
| 20260903093157 | 79 | 163 | 5.0 | 10.0 | 0.00 | 0.00 | 0.00 | 89 | 1014.7 |
| 20260903092657 | 79 | 203 | 5.0 | 12.0 | 0.00 | 0.00 | 0.00 | 89 | 1014.7 |
| 20260903092416 | 79 | 189 | 5.0 | 12.0 | 0.00 | 0.00 | 0.00 | 89 | 1014.7 |
| 20260903091657 | 79 | 166 | 6.0 | 12.0 | 0.00 | 0.00 | 0.00 | 89 | 1014.8 |
| 20260903091154 | 79 | 206 | 5.0 | 12.0 | 0.00 | 0.00 | 0.00 | 89 | 1014.9 |
| 20260903090922 | 79 | 192 | 5.0 | 11.0 | 0.00 | 0.00 | 0.00 | 88 | 1014.8 |
| 20260903090152 | 79 | 181 | 5.0 | 13.0 | 0.00 | 0.00 | 0.00 | 88 | 1014.8 |
| 20260903085652 | 79 | 0 | 6.0 | 13.0 | 0.00 | 0.00 | 0.00 | 88 | 1014.9 |
| 20260903085150 | 79 | 200 | 6.0 | 13.0 | 0.00 | 0.00 | 0.00 | 87 | 1015.0 |
| 20260903084918 | 80 | 170 | 5.0 | 13.0 | 0.00 | 0.00 | 0.00 | 87 | 1015.1 |
| 20260903084150 | 80 | 171 | 4.0 | 12.0 | 0.00 | 0.00 | 0.00 | 87 | 1015.0 |
| 20260903083650 | 80 | 191 | 4.0 | 9.0 | 0.00 | 0.00 | 0.00 | 86 | 1015.0 |
| 20260903083150 | 80 | 0 | 4.0 | 9.0 | 0.00 | 0.00 | 0.00 | 86 | 1015.0 |
| 20260903082650 | 80 | 185 | 5.0 | 14.0 | 0.00 | 0.00 | 0.00 | 86 | 1014.9 |
| 20260903082151 | 80 | 172 | 5.0 | 14.0 | 0.00 | 0.00 | 0.00 | 86 | 1015.0 |
| 20260903081650 | 80 | 169 | 5.0 | 11.0 | 0.00 | 0.00 | 0.00 | 85 | 1014.9 |
| 20260903081148 | 80 | 171 | 5.0 | 11.0 | 0.00 | 0.00 | 0.00 | 85 | 1015.0 |
| 20260903080911 | 80 | 161 | 5.0 | 11.0 | 0.00 | 0.00 | 0.00 | 84 | 1014.9 |
| 20260903080148 | 80 | 177 | 4.0 | 10.0 | 0.00 | 0.00 | 0.00 | 84 | 1014.9 |
| 20260903075648 | 80 | 189 | 5.0 | 13.0 | 0.00 | 0.00 | 0.00 | 83 | 1014.9 |
| 20260903075637 | 80 | 186 | 4.0 | 13.0 | 0.00 | 0.00 | 0.00 | 83 | 1014.9 |
| 20260903075144 | 80 | 158 | 4.0 | 16.0 | 0.00 | 0.00 | 0.00 | 83 | 1014.9 |
| 20260903074148 | 80 | 178 | 4.0 | 16.0 | 0.00 | 0.00 | 0.00 | 82 | 1015.0 |
| 20260903073648 | 80 | 147 | 5.0 | 16.0 | 0.00 | 0.00 | 0.00 | 82 | 1015.1 |
| 20260903073147 | 80 | 174 | 5.0 | 16.0 | 0.00 | 0.00 | 0.00 | 82 | 1015.0 |
| 20260903072648 | 80 | 185 | 5.0 | 10.0 | 0.00 | 0.00 | 0.00 | 81 | 1015.1 |
| 20260903072148 | 81 | 145 | 5.0 | 10.0 | 0.00 | 0.00 | 0.00 | 81 | 1015.0 |
| 20260903071906 | 81 | 177 | 5.0 | 11.0 | 0.00 | 0.00 | 0.00 | 81 | 1015.0 |
| 20260903071144 | 81 | 164 | 5.0 | 15.0 | 0.00 | 0.00 | 0.00 | 80 | 1015.1 |
| 20260903070644 | 81 | 182 | 5.0 | 15.0 | 0.00 | 0.00 | 0.00 | 80 | 1015.1 |
| 20260903070145 | 81 | 161 | 4.0 | 11.0 | 0.00 | 0.00 | 0.00 | 80 | 1015.1 |
| 20260903065908 | 81 | 154 | 5.0 | 11.0 | 0.00 | 0.00 | 0.00 | 79 | 1015.1 |
| 20260903065406 | 81 | 171 | 5.0 | 10.0 | 0.00 | 0.00 | 0.00 | 79 | 1015.0 |
| 20260903064644 | 81 | 167 | 5.0 | 10.0 | 0.00 | 0.00 | 0.00 | 79 | 1015.0 |
| 20260903064144 | 81 | 171 | 5.0 | 14.0 | 0.00 | 0.00 | 0.00 | 78 | 1015.2 |
| 20260903063644 | 81 | 217 | 5.0 | 14.0 | 0.00 | 0.00 | 0.00 | 78 | 1015.3 |
| 20260903063144 | 81 | 159 | 5.0 | 16.0 | 0.00 | 0.00 | 0.00 | 78 | 1015.3 |
| 20260903062906 | 80 | 148 | 5.0 | 16.0 | 0.00 | 0.00 | 0.00 | 79 | 1015.4 |
| 20260903062144 | 80 | 200 | 4.0 | 11.0 | 0.00 | 0.00 | 0.00 | 80 | 1015.5 |
| 20260903061644 | 80 | 167 | 4.0 | 9.0 | 0.00 | 0.00 | 0.00 | 80 | 1015.5 |
| 20260903061141 | 80 | 165 | 2.0 | 9.0 | 0.00 | 0.00 | 0.00 | 81 | 1015.5 |
| 20260903060640 | 80 | 148 | 2.0 | 7.0 | 0.00 | 0.00 | 0.00 | 82 | 1015.5 |
| 20260903060139 | 80 | 153 | 2.0 | 7.0 | 0.00 | 0.00 | 0.00 | 82 | 1015.6 |
| 20260903055638 | 80 | 155 | 3.0 | 7.0 | 0.00 | 0.00 | 0.00 | 81 | 1015.6 |
| 20260903055136 | 80 | 159 | 3.0 | 9.0 | 0.00 | 0.00 | 0.00 | 81 | 1015.6 |
| 20260903054634 | 80 | 142 | 3.0 | 9.0 | 0.00 | 0.00 | 0.00 | 81 | 1015.6 |
| 20260903054131 | 81 | 135 | 4.0 | 10.0 | 0.00 | 0.00 | 0.00 | 81 | 1015.6 |
| 20260903053632 | 81 | 141 | 5.0 | 10.0 | 0.00 | 0.00 | 0.00 | 80 | 1015.5 |
| 20260903053131 | 81 | 149 | 5.0 | 9.0 | 0.00 | 0.00 | 0.00 | 80 | 1015.5 |
| 20260903052631 | 81 | 131 | 5.0 | 9.0 | 0.00 | 0.00 | 0.00 | 80 | 1015.6 |
| 20260903052130 | 81 | 134 | 4.0 | 13.0 | 0.00 | 0.00 | 0.00 | 79 | 1015.5 |
| 20260903051849 | 81 | 138 | 4.0 | 13.0 | 0.00 | 0.00 | 0.00 | 79 | 1015.5 |
| 20260903051128 | 82 | 132 | 6.0 | 13.0 | 0.00 | 0.00 | 0.00 | 79 | 1015.4 |
| 20260903050622 | 82 | 149 | 7.0 | 13.0 | 0.00 | 0.00 | 0.00 | 78 | 1015.3 |
| 20260903050115 | 82 | 124 | 7.0 | 12.0 | 0.00 | 0.00 | 0.00 | 78 | 1015.3 |
| 20260903045610 | 82 | 108 | 6.0 | 10.0 | 0.00 | 0.00 | 0.00 | 77 | 1015.2 |
| 20260903045104 | 82 | 114 | 5.0 | 10.0 | 0.00 | 0.00 | 0.00 | 76 | 1015.3 |
| 20260903044603 | 82 | 106 | 5.0 | 10.0 | 0.00 | 0.00 | 0.00 | 76 | 1015.3 |
| 20260903044546 | 82 | 134 | 4.0 | 10.0 | 0.00 | 0.00 | 0.00 | 75 | 1015.3 |
| 20260903043603 | 82 | 124 | 5.0 | 10.0 | 0.00 | 0.00 | 0.00 | 75 | 1015.3 |
| 20260903043102 | 83 | 149 | 6.0 | 10.0 | 0.00 | 0.00 | 0.00 | 75 | 1015.2 |
| 20260903042824 | 83 | 132 | 7.0 | 11.0 | 0.00 | 0.00 | 0.00 | 74 | 1015.2 |
| 20260903042326 | 83 | 121 | 7.0 | 12.0 | 0.00 | 0.00 | 0.00 | 74 | 1015.3 |
| 20260903041602 | 83 | 148 | 8.0 | 16.0 | 0.00 | 0.00 | 0.00 | 73 | 1015.2 |
| 20260903041102 | 83 | 114 | 8.0 | 16.0 | 0.00 | 0.00 | 0.00 | 73 | 1015.4 |
| 20260903040826 | 84 | 103 | 8.0 | 15.0 | 0.00 | 0.00 | 0.00 | 73 | 1015.5 |
| 20260903035603 | 84 | 107 | 9.0 | 16.0 | 0.00 | 0.00 | 0.00 | 71 | 1015.3 |
| 20260903035101 | 85 | 103 | 10.0 | 18.0 | 0.00 | 0.00 | 0.00 | 70 | 1015.4 |
| 20260903035048 | 85 | 57 | 8.0 | 18.0 | 0.00 | 0.00 | 0.00 | 69 | 1015.4 |
| 20260903034102 | 85 | 131 | 7.0 | 15.0 | 0.00 | 0.00 | 0.00 | 68 | 1015.3 |
| 20260903033602 | 86 | 108 | 6.0 | 12.0 | 0.00 | 0.00 | 0.00 | 68 | 1015.3 |
| 20260903033102 | 86 | 112 | 6.0 | 12.0 | 0.00 | 0.00 | 0.00 | 67 | 1015.2 |
| 20260903032827 | 86 | 123 | 6.0 | 12.0 | 0.00 | 0.00 | 0.00 | 67 | 1015.0 |
| 20260903032054 | 86 | 81 | 6.0 | 12.0 | 0.00 | 0.00 | 0.00 | 67 | 1014.9 |
| 20260903031548 | 86 | 128 | 5.0 | 12.0 | 0.00 | 0.00 | 0.00 | 67 | 1015.0 |
| 20260903031049 | 86 | 98 | 4.0 | 11.0 | 0.00 | 0.00 | 0.00 | 68 | 1014.9 |
| 20260903030548 | 85 | 86 | 2.0 | 11.0 | 0.00 | 0.00 | 0.00 | 69 | 1014.9 |
| 20260903030048 | 85 | 74 | 2.0 | 4.0 | 0.00 | 0.00 | 0.00 | 69 | 1014.6 |
| 20260903025547 | 85 | 128 | 0.0 | 3.0 | 0.00 | 0.00 | 0.00 | 70 | 1014.5 |
| 20260903025047 | 85 | 124 | 0.0 | 0.0 | 0.00 | 0.00 | 0.00 | 71 | 1014.3 |
| 20260903024546 | 85 | 123 | 0.0 | 0.0 | 0.00 | 0.00 | 0.00 | 71 | 1014.4 |
| 20260903024045 | 85 | 123 | 0.0 | 0.0 | 0.00 | 0.00 | 0.00 | 71 | 1014.2 |
| 20260903023542 | 85 | 123 | 0.0 | 0.0 | 0.00 | 0.00 | 0.00 | 71 | 1014.2 |
| 20260903023040 | 85 | 123 | 0.0 | 0.0 | 0.00 | 0.00 | 0.00 | 70 | 1014.2 |
| 20260903022540 | 85 | 123 | 0.0 | 0.0 | 0.00 | 0.00 | 0.00 | 69 | 1014.1 |
| 20260903022040 | 85 | 123 | 0.0 | 0.0 | 0.00 | 0.00 | 0.00 | 69 | 1014.0 |
| 20260903021538 | 86 | 123 | 0.0 | 0.0 | 0.00 | 0.00 | 0.00 | 70 | 1014.0 |
| 20260903021036 | 86 | 123 | 0.0 | 0.0 | 0.00 | 0.00 | 0.00 | 69 | 1013.8 |
| 20260903021018 | 86 | 123 | 0.0 | 0.0 | 0.00 | 0.00 | 0.00 | 68 | 1013.7 |
| 20260903020034 | 86 | 123 | 0.0 | 0.0 | 0.00 | 0.00 | 0.00 | 68 | 1013.6 |
| 20260903015540 | 87 | 123 | 0.0 | 0.0 | 0.00 | 0.00 | 0.00 | 67 | 1013.6 |
| 20260903015037 | 87 | 123 | 0.0 | 0.0 | 0.00 | 0.00 | 0.00 | 67 | 1013.5 |
| 20260903014534 | 87 | 123 | 0.0 | 0.0 | 0.00 | 0.00 | 0.00 | 66 | 1013.4 |
| 20260903014034 | 87 | 123 | 0.0 | 0.0 | 0.00 | 0.00 | 0.00 | 66 | 1013.5 |
| 20260903013534 | 87 | 123 | 0.0 | 0.0 | 0.00 | 0.00 | 0.00 | 66 | 1013.4 |
| 20260903013257 | 87 | 123 | 0.0 | 0.0 | 0.00 | 0.00 | 0.00 | 67 | 1013.4 |
| 20260903012534 | 87 | 124 | 0.0 | 0.0 | 0.00 | 0.00 | 0.00 | 66 | 1013.4 |
| 20260903012034 | 87 | 124 | 0.0 | 0.0 | 0.00 | 0.00 | 0.00 | 65 | 1013.5 |
| 20260903011757 | 88 | 98 | 0.0 | 0.0 | 0.00 | 0.00 | 0.00 | 67 | 1013.4 |
| 20260903011032 | 88 | 76 | 0.0 | 0.0 | 0.00 | 0.00 | 0.00 | 66 | 1013.3 |
| 20260903010532 | 89 | 76 | 0.0 | 1.0 | 0.00 | 0.00 | 0.00 | 65 | 1013.3 |
| 20260903010032 | 89 | 76 | 0.0 | 1.0 | 0.00 | 0.00 | 0.00 | 64 | 1013.4 |
| 20260903010013 | 90 | 77 | 0.0 | 1.0 | 0.00 | 0.00 | 0.00 | 63 | 1013.3 |
| 20260903005032 | 91 | 0 | 0.0 | 2.0 | 0.00 | 0.00 | 0.00 | 63 | 1013.4 |
| 20260903004531 | 91 | 0 | 0.0 | 2.0 | 0.00 | 0.00 | 0.00 | 61 | 1013.4 |
| 20260903004030 | 92 | 76 | 0.0 | 2.0 | 0.00 | 0.00 | 0.00 | 60 | 1013.4 |
| 20260903003750 | 92 | 76 | 0.0 | 2.0 | 0.00 | 0.00 | 0.00 | 59 | 1013.3 |
| 20260903003248 | 92 | 76 | 0.0 | 2.0 | 0.00 | 0.00 | 0.00 | 58 | 1013.3 |
| 20260903002531 | 92 | 75 | 0.0 | 4.0 | 0.00 | 0.00 | 0.00 | 58 | 1013.4 |
| 20260903002030 | 93 | 76 | 1.0 | 4.0 | 0.00 | 0.00 | 0.00 | 57 | 1013.5 |
| 20260903001759 | 93 | 76 | 1.0 | 4.0 | 0.00 | 0.00 | 0.00 | 56 | 1013.4 |